Year,Month,Day,Hour,Minute,Value (Times are PST for temperature in C)
2009,07,21,00,00,16.60
2009,07,21,00,01,16.60
2009,07,21,00,02,16.60
2009,07,21,00,03,16.60
2009,07,21,00,04,16.50
2009,07,21,00,05,16.50
2009,07,21,00,06,16.40
2009,07,21,00,07,16.40
2009,07,21,00,08,16.40
2009,07,21,00,09,16.40
2009,07,21,00,10,16.30
2009,07,21,00,11,16.30
2009,07,21,00,12,16.30
2009,07,21,00,13,16.30
2009,07,21,00,14,16.30
2009,07,21,00,15,16.30
2009,07,21,00,16,16.30
2009,07,21,00,17,16.30
2009,07,21,00,18,16.40
2009,07,21,00,19,16.40
2009,07,21,00,20,16.40
2009,07,21,00,21,16.40
2009,07,21,00,22,16.40
2009,07,21,00,23,16.40
2009,07,21,00,24,16.40
2009,07,21,00,25,16.50
2009,07,21,00,26,16.50
2009,07,21,00,27,16.50
2009,07,21,00,28,16.50
2009,07,21,00,29,16.50
2009,07,21,00,30,16.50
2009,07,21,00,31,16.50
2009,07,21,00,32,16.50
2009,07,21,00,33,16.40
2009,07,21,00,34,16.40
2009,07,21,00,35,16.40
2009,07,21,00,36,16.40
2009,07,21,00,37,16.30
2009,07,21,00,38,16.30
2009,07,21,00,39,16.30
2009,07,21,00,40,16.30
2009,07,21,00,41,16.20
2009,07,21,00,42,16.20
2009,07,21,00,43,16.20
2009,07,21,00,44,16.10
2009,07,21,00,45,16.10
2009,07,21,00,46,16.10
2009,07,21,00,47,16.10
2009,07,21,00,48,16.00
2009,07,21,00,49,16.00
2009,07,21,00,50,16.00
2009,07,21,00,51,16.00
2009,07,21,00,52,15.90
2009,07,21,00,53,15.90
2009,07,21,00,54,15.90
2009,07,21,00,55,15.90
2009,07,21,00,56,15.90
2009,07,21,00,57,15.90
2009,07,21,00,58,15.90
2009,07,21,00,59,15.90
2009,07,21,01,00,15.80
2009,07,21,01,01,15.80
2009,07,21,01,02,15.80
2009,07,21,01,03,15.80
2009,07,21,01,04,15.80
2009,07,21,01,05,15.80
2009,07,21,01,06,15.70
2009,07,21,01,07,15.70
2009,07,21,01,08,15.70
2009,07,21,01,09,15.70
2009,07,21,01,10,15.70
2009,07,21,01,11,15.70
2009,07,21,01,12,15.70
2009,07,21,01,13,15.70
2009,07,21,01,14,15.70
2009,07,21,01,15,15.70
2009,07,21,01,16,15.70
2009,07,21,01,17,15.70
2009,07,21,01,18,15.70
2009,07,21,01,19,15.70
2009,07,21,01,20,15.60
2009,07,21,01,21,15.60
2009,07,21,01,22,15.60
2009,07,21,01,23,15.60
2009,07,21,01,24,15.60
2009,07,21,01,25,15.60
2009,07,21,01,26,15.50
2009,07,21,01,27,15.50
2009,07,21,01,28,15.50
2009,07,21,01,29,15.50
2009,07,21,01,30,15.40
2009,07,21,01,31,15.40
2009,07,21,01,32,15.40
2009,07,21,01,33,15.40
2009,07,21,01,34,15.40
2009,07,21,01,35,15.40
2009,07,21,01,36,15.40
2009,07,21,01,37,15.40
2009,07,21,01,38,15.40
2009,07,21,01,39,15.40
2009,07,21,01,40,15.30
2009,07,21,01,41,15.30
2009,07,21,01,42,15.30
2009,07,21,01,43,15.30
2009,07,21,01,44,15.30
2009,07,21,01,45,15.20
2009,07,21,01,46,15.20
2009,07,21,01,47,15.20
2009,07,21,01,48,15.20
2009,07,21,01,49,15.20
2009,07,21,01,50,15.20
2009,07,21,01,51,15.10
2009,07,21,01,52,15.10
2009,07,21,01,53,15.00
2009,07,21,01,54,15.00
2009,07,21,01,55,15.00
2009,07,21,01,56,15.00
2009,07,21,01,57,15.00
2009,07,21,01,58,15.00
2009,07,21,01,59,15.00
2009,07,21,02,00,15.00
2009,07,21,02,01,15.00
2009,07,21,02,02,15.00
2009,07,21,02,03,15.00
2009,07,21,02,04,15.00
2009,07,21,02,05,15.00
2009,07,21,02,06,15.00
2009,07,21,02,07,15.00
2009,07,21,02,08,15.00
2009,07,21,02,09,15.00
2009,07,21,02,10,14.90
2009,07,21,02,11,14.90
2009,07,21,02,12,14.80
2009,07,21,02,13,14.80
2009,07,21,02,14,14.70
2009,07,21,02,15,14.70
2009,07,21,02,16,14.70
2009,07,21,02,17,14.70
2009,07,21,02,18,14.80
2009,07,21,02,19,14.80
2009,07,21,02,20,14.80
2009,07,21,02,21,14.80
2009,07,21,02,22,14.80
2009,07,21,02,23,14.70
2009,07,21,02,24,14.80
2009,07,21,02,25,14.80
2009,07,21,02,26,14.80
2009,07,21,02,27,14.80
2009,07,21,02,28,14.80
2009,07,21,02,29,14.80
2009,07,21,02,30,14.80
2009,07,21,02,31,14.70
2009,07,21,02,32,14.70
2009,07,21,02,33,14.70
2009,07,21,02,34,14.70
2009,07,21,02,35,14.60
2009,07,21,02,36,14.60
2009,07,21,02,37,14.60
2009,07,21,02,38,14.50
2009,07,21,02,39,14.50
2009,07,21,02,40,14.50
2009,07,21,02,41,14.40
2009,07,21,02,42,14.40
2009,07,21,02,43,14.40
2009,07,21,02,44,14.40
2009,07,21,02,45,14.30
2009,07,21,02,46,14.40
2009,07,21,02,47,14.40
2009,07,21,02,48,14.40
2009,07,21,02,49,14.50
2009,07,21,02,50,14.50
2009,07,21,02,51,14.50
2009,07,21,02,52,14.50
2009,07,21,02,53,14.50
2009,07,21,02,54,14.50
2009,07,21,02,55,14.40
2009,07,21,02,56,14.40
2009,07,21,02,57,14.40
2009,07,21,02,58,14.30
2009,07,21,02,59,14.30
2009,07,21,03,00,14.30
2009,07,21,03,01,14.30
2009,07,21,03,02,14.30
2009,07,21,03,03,14.30
2009,07,21,03,04,14.30
2009,07,21,03,05,14.30
2009,07,21,03,06,14.20
2009,07,21,03,07,14.20
2009,07,21,03,08,14.20
2009,07,21,03,09,14.10
2009,07,21,03,10,14.10
2009,07,21,03,11,14.10
2009,07,21,03,12,14.10
2009,07,21,03,13,14.00
2009,07,21,03,14,14.00
2009,07,21,03,15,14.00
2009,07,21,03,16,13.90
2009,07,21,03,17,13.90
2009,07,21,03,18,13.90
2009,07,21,03,19,14.00
2009,07,21,03,20,14.00
2009,07,21,03,21,14.10
2009,07,21,03,22,14.10
2009,07,21,03,23,14.10
2009,07,21,03,24,14.00
2009,07,21,03,25,14.00
2009,07,21,03,26,14.00
2009,07,21,03,27,13.90
2009,07,21,03,28,13.90
2009,07,21,03,29,13.90
2009,07,21,03,30,13.90
2009,07,21,03,31,13.90
2009,07,21,03,32,13.90
2009,07,21,03,33,13.90
2009,07,21,03,34,13.90
2009,07,21,03,35,13.90
2009,07,21,03,36,13.90
2009,07,21,03,37,13.90
2009,07,21,03,38,13.90
2009,07,21,03,39,13.80
2009,07,21,03,40,13.80
2009,07,21,03,41,13.80
2009,07,21,03,42,13.80
2009,07,21,03,43,13.80
2009,07,21,03,44,13.80
2009,07,21,03,45,13.80
2009,07,21,03,46,13.80
2009,07,21,03,47,13.80
2009,07,21,03,48,13.80
2009,07,21,03,49,13.70
2009,07,21,03,50,13.70
2009,07,21,03,51,13.70
2009,07,21,03,52,13.70
2009,07,21,03,53,13.70
2009,07,21,03,54,13.70
2009,07,21,03,55,13.70
2009,07,21,03,56,13.70
2009,07,21,03,57,13.60
2009,07,21,03,58,13.60
2009,07,21,03,59,13.60
2009,07,21,04,00,13.60
2009,07,21,04,01,13.60
2009,07,21,04,02,13.60
2009,07,21,04,03,13.50
2009,07,21,04,04,13.50
2009,07,21,04,05,13.50
2009,07,21,04,06,13.40
2009,07,21,04,07,13.40
2009,07,21,04,08,13.40
2009,07,21,04,09,13.40
2009,07,21,04,10,13.40
2009,07,21,04,11,13.40
2009,07,21,04,12,13.40
2009,07,21,04,13,13.40
2009,07,21,04,14,13.30
2009,07,21,04,15,13.30
2009,07,21,04,16,13.30
2009,07,21,04,17,13.30
2009,07,21,04,18,13.30
2009,07,21,04,19,13.30
2009,07,21,04,20,13.20
2009,07,21,04,21,13.20
2009,07,21,04,22,13.20
2009,07,21,04,23,13.30
2009,07,21,04,24,13.20
2009,07,21,04,25,13.30
2009,07,21,04,26,13.30
2009,07,21,04,27,13.30
2009,07,21,04,28,13.30
2009,07,21,04,29,13.30
2009,07,21,04,30,13.30
2009,07,21,04,31,13.30
2009,07,21,04,32,13.30
2009,07,21,04,33,13.30
2009,07,21,04,34,13.40
2009,07,21,04,35,13.40
2009,07,21,04,36,13.40
2009,07,21,04,37,13.40
2009,07,21,04,38,13.40
2009,07,21,04,39,13.40
2009,07,21,04,40,13.40
2009,07,21,04,41,13.50
2009,07,21,04,42,13.50
2009,07,21,04,43,13.50
2009,07,21,04,44,13.50
2009,07,21,04,45,13.60
2009,07,21,04,46,13.60
2009,07,21,04,47,13.60
2009,07,21,04,48,13.60
2009,07,21,04,49,13.60
2009,07,21,04,50,13.60
2009,07,21,04,51,13.60
2009,07,21,04,52,13.60
2009,07,21,04,53,13.60
2009,07,21,04,54,13.60
2009,07,21,04,55,13.60
2009,07,21,04,56,13.60
2009,07,21,04,57,13.60
2009,07,21,04,58,13.60
2009,07,21,04,59,13.60
2009,07,21,05,00,13.60
2009,07,21,05,01,13.60
2009,07,21,05,02,13.50
2009,07,21,05,03,13.50
2009,07,21,05,04,13.50
2009,07,21,05,05,13.50
2009,07,21,05,06,13.50
2009,07,21,05,07,13.50
2009,07,21,05,08,13.50
2009,07,21,05,09,13.50
2009,07,21,05,10,13.50
2009,07,21,05,11,13.50
2009,07,21,05,12,13.50
2009,07,21,05,13,13.50
2009,07,21,05,14,13.50
2009,07,21,05,15,13.50
2009,07,21,05,16,13.50
2009,07,21,05,17,13.60
2009,07,21,05,18,13.60
2009,07,21,05,19,13.60
2009,07,21,05,20,13.60
2009,07,21,05,21,13.60
2009,07,21,05,22,13.60
2009,07,21,05,23,13.60
2009,07,21,05,24,13.60
2009,07,21,05,25,13.60
2009,07,21,05,26,13.60
2009,07,21,05,27,13.60
2009,07,21,05,28,13.60
2009,07,21,05,29,13.60
2009,07,21,05,30,13.60
2009,07,21,05,31,13.60
2009,07,21,05,32,13.50
2009,07,21,05,33,13.50
2009,07,21,05,34,13.50
2009,07,21,05,35,13.50
2009,07,21,05,36,13.50
2009,07,21,05,37,13.60
2009,07,21,05,38,13.60
2009,07,21,05,39,13.60
2009,07,21,05,40,13.60
2009,07,21,05,41,13.50
2009,07,21,05,42,13.50
2009,07,21,05,43,13.50
2009,07,21,05,44,13.40
2009,07,21,05,45,13.40
2009,07,21,05,46,13.40
2009,07,21,05,47,13.40
2009,07,21,05,48,13.30
2009,07,21,05,49,13.30
2009,07,21,05,50,13.30
2009,07,21,05,51,13.30
2009,07,21,05,52,13.30
2009,07,21,05,53,13.30
2009,07,21,05,54,13.30
2009,07,21,05,55,13.30
2009,07,21,05,56,13.20
2009,07,21,05,57,13.20
2009,07,21,05,58,13.20
2009,07,21,05,59,13.20
2009,07,21,06,00,13.20
2009,07,21,06,01,13.20
2009,07,21,06,02,13.20
2009,07,21,06,03,13.20
2009,07,21,06,04,13.20
2009,07,21,06,05,13.10
2009,07,21,06,06,13.10
2009,07,21,06,07,13.10
2009,07,21,06,08,13.10
2009,07,21,06,09,13.10
2009,07,21,06,10,13.10
2009,07,21,06,11,13.10
2009,07,21,06,12,13.10
2009,07,21,06,13,13.10
2009,07,21,06,14,13.10
2009,07,21,06,15,13.20
2009,07,21,06,16,13.20
2009,07,21,06,17,13.20
2009,07,21,06,18,13.20
2009,07,21,06,19,13.20
2009,07,21,06,20,13.20
2009,07,21,06,21,13.20
2009,07,21,06,22,13.20
2009,07,21,06,23,13.10
2009,07,21,06,24,13.10
2009,07,21,06,25,13.10
2009,07,21,06,26,13.10
2009,07,21,06,27,13.10
2009,07,21,06,28,13.10
2009,07,21,06,29,13.10
2009,07,21,06,30,13.10
2009,07,21,06,31,13.10
2009,07,21,06,32,13.10
2009,07,21,06,33,13.10
2009,07,21,06,34,13.10
2009,07,21,06,35,13.10
2009,07,21,06,36,13.10
2009,07,21,06,37,13.10
2009,07,21,06,38,13.20
2009,07,21,06,39,13.20
2009,07,21,06,40,13.20
2009,07,21,06,41,13.20
2009,07,21,06,42,13.20
2009,07,21,06,43,13.20
2009,07,21,06,44,13.20
2009,07,21,06,45,13.20
2009,07,21,06,46,13.30
2009,07,21,06,47,13.30
2009,07,21,06,48,13.30
2009,07,21,06,49,13.40
2009,07,21,06,50,13.50
2009,07,21,06,51,13.50
2009,07,21,06,52,13.60
2009,07,21,06,53,13.70
2009,07,21,06,54,13.80
2009,07,21,06,55,13.80
2009,07,21,06,56,13.90
2009,07,21,06,57,13.90
2009,07,21,06,58,14.00
2009,07,21,06,59,14.10
2009,07,21,07,00,14.10
2009,07,21,07,01,14.10
2009,07,21,07,02,14.20
2009,07,21,07,03,14.20
2009,07,21,07,04,14.30
2009,07,21,07,05,14.30
2009,07,21,07,06,14.40
2009,07,21,07,07,14.50
2009,07,21,07,08,14.50
2009,07,21,07,09,14.60
2009,07,21,07,10,14.70
2009,07,21,07,11,14.70
2009,07,21,07,12,14.80
2009,07,21,07,13,14.90
2009,07,21,07,14,15.00
2009,07,21,07,15,15.00
2009,07,21,07,16,15.00
2009,07,21,07,17,15.00
2009,07,21,07,18,15.10
2009,07,21,07,19,15.30
2009,07,21,07,20,15.40
2009,07,21,07,21,15.50
2009,07,21,07,22,15.60
2009,07,21,07,23,15.70
2009,07,21,07,24,15.80
2009,07,21,07,25,15.80
2009,07,21,07,26,15.90
2009,07,21,07,27,15.90
2009,07,21,07,28,16.00
2009,07,21,07,29,16.00
2009,07,21,07,30,16.10
2009,07,21,07,31,16.20
2009,07,21,07,32,16.30
2009,07,21,07,33,16.40
2009,07,21,07,34,16.50
2009,07,21,07,35,16.70
2009,07,21,07,36,16.80
2009,07,21,07,37,16.90
2009,07,21,07,38,17.00
2009,07,21,07,39,17.10
2009,07,21,07,40,17.20
2009,07,21,07,41,17.30
2009,07,21,07,42,17.40
2009,07,21,07,43,17.50
2009,07,21,07,44,17.50
2009,07,21,07,45,17.60
2009,07,21,07,46,17.70
2009,07,21,07,47,17.80
2009,07,21,07,48,17.80
2009,07,21,07,49,17.80
2009,07,21,07,50,17.90
2009,07,21,07,51,17.90
2009,07,21,07,52,17.90
2009,07,21,07,53,17.90
2009,07,21,07,54,18.00
2009,07,21,07,55,18.00
2009,07,21,07,56,18.10
2009,07,21,07,57,18.10
2009,07,21,07,58,18.10
2009,07,21,07,59,18.20
2009,07,21,08,00,18.20
2009,07,21,08,01,18.20
2009,07,21,08,02,18.30
2009,07,21,08,03,18.30
2009,07,21,08,04,18.30
2009,07,21,08,05,18.40
2009,07,21,08,06,18.50
2009,07,21,08,07,18.60
2009,07,21,08,08,18.60
2009,07,21,08,09,18.70
2009,07,21,08,10,18.70
2009,07,21,08,11,18.80
2009,07,21,08,12,18.80
2009,07,21,08,13,18.90
2009,07,21,08,14,19.00
2009,07,21,08,15,19.10
2009,07,21,08,16,19.10
2009,07,21,08,17,19.10
2009,07,21,08,18,19.20
2009,07,21,08,19,19.20
2009,07,21,08,20,19.20
2009,07,21,08,21,19.30
2009,07,21,08,22,19.30
2009,07,21,08,23,19.40
2009,07,21,08,24,19.40
2009,07,21,08,25,19.50
2009,07,21,08,26,19.50
2009,07,21,08,27,19.60
2009,07,21,08,28,19.60
2009,07,21,08,29,19.60
2009,07,21,08,30,19.70
2009,07,21,08,31,19.70
2009,07,21,08,32,19.70
2009,07,21,08,33,19.70
2009,07,21,08,34,19.80
2009,07,21,08,35,19.80
2009,07,21,08,36,19.90
2009,07,21,08,37,19.90
2009,07,21,08,38,19.90
2009,07,21,08,39,20.00
2009,07,21,08,40,20.00
2009,07,21,08,41,20.10
2009,07,21,08,42,20.10
2009,07,21,08,43,20.10
2009,07,21,08,44,20.20
2009,07,21,08,45,20.20
2009,07,21,08,46,20.30
2009,07,21,08,47,20.30
2009,07,21,08,48,20.30
2009,07,21,08,49,20.40
2009,07,21,08,50,20.40
2009,07,21,08,51,20.50
2009,07,21,08,52,20.60
2009,07,21,08,53,20.60
2009,07,21,08,54,20.70
2009,07,21,08,55,20.70
2009,07,21,08,56,20.80
2009,07,21,08,57,20.80
2009,07,21,08,58,20.80
2009,07,21,08,59,20.90
2009,07,21,09,00,20.90
2009,07,21,09,01,20.90
2009,07,21,09,02,21.00
2009,07,21,09,03,21.00
2009,07,21,09,04,21.10
2009,07,21,09,05,21.10
2009,07,21,09,06,21.20
2009,07,21,09,07,21.30
2009,07,21,09,08,21.40
2009,07,21,09,09,21.50
2009,07,21,09,10,21.60
2009,07,21,09,11,21.70
2009,07,21,09,12,21.80
2009,07,21,09,13,21.80
2009,07,21,09,14,21.80
2009,07,21,09,15,21.80
2009,07,21,09,16,21.80
2009,07,21,09,17,21.90
2009,07,21,09,18,22.00
2009,07,21,09,19,22.00
2009,07,21,09,20,22.00
2009,07,21,09,21,22.00
2009,07,21,09,22,22.00
2009,07,21,09,23,22.00
2009,07,21,09,24,22.00
2009,07,21,09,25,22.00
2009,07,21,09,26,21.90
2009,07,21,09,27,21.90
2009,07,21,09,28,21.80
2009,07,21,09,29,21.80
2009,07,21,09,30,21.70
2009,07,21,09,31,21.50
2009,07,21,09,32,21.40
2009,07,21,09,33,21.40
2009,07,21,09,34,21.30
2009,07,21,09,35,21.20
2009,07,21,09,36,21.20
2009,07,21,09,37,21.20
2009,07,21,09,38,21.20
2009,07,21,09,39,21.10
2009,07,21,09,40,21.10
2009,07,21,09,41,21.20
2009,07,21,09,42,21.20
2009,07,21,09,43,21.20
2009,07,21,09,44,21.30
2009,07,21,09,45,21.30
2009,07,21,09,46,21.40
2009,07,21,09,47,21.40
2009,07,21,09,48,21.40
2009,07,21,09,49,21.40
2009,07,21,09,50,21.40
2009,07,21,09,51,21.40
2009,07,21,09,52,21.40
2009,07,21,09,53,21.30
2009,07,21,09,54,21.20
2009,07,21,09,55,21.20
2009,07,21,09,56,21.20
2009,07,21,09,57,21.10
2009,07,21,09,58,21.10
2009,07,21,09,59,21.00
2009,07,21,10,00,21.00
2009,07,21,10,01,21.00
2009,07,21,10,02,20.90
2009,07,21,10,03,20.90
2009,07,21,10,04,20.90
2009,07,21,10,05,20.90
2009,07,21,10,06,20.90
2009,07,21,10,07,20.90
2009,07,21,10,08,20.80
2009,07,21,10,09,20.80
2009,07,21,10,10,20.80
2009,07,21,10,11,20.90
2009,07,21,10,12,20.90
2009,07,21,10,13,20.90
2009,07,21,10,14,20.90
2009,07,21,10,15,20.80
2009,07,21,10,16,20.80
2009,07,21,10,17,20.80
2009,07,21,10,18,20.90
2009,07,21,10,19,20.80
2009,07,21,10,20,20.80
2009,07,21,10,21,20.80
2009,07,21,10,22,20.80
2009,07,21,10,23,20.80
2009,07,21,10,24,20.80
2009,07,21,10,25,20.80
2009,07,21,10,26,20.80
2009,07,21,10,27,20.90
2009,07,21,10,28,20.90
2009,07,21,10,29,20.90
2009,07,21,10,30,20.80
2009,07,21,10,31,20.80
2009,07,21,10,32,20.80
2009,07,21,10,33,20.80
2009,07,21,10,34,20.90
2009,07,21,10,35,21.00
2009,07,21,10,36,21.10
2009,07,21,10,37,21.10
2009,07,21,10,38,21.10
2009,07,21,10,39,21.20
2009,07,21,10,40,21.20
2009,07,21,10,41,21.20
2009,07,21,10,42,21.10
2009,07,21,10,43,21.10
2009,07,21,10,44,21.10
2009,07,21,10,45,21.20
2009,07,21,10,46,21.20
2009,07,21,10,47,21.30
2009,07,21,10,48,21.30
2009,07,21,10,49,21.30
2009,07,21,10,50,21.40
2009,07,21,10,51,21.40
2009,07,21,10,52,21.30
2009,07,21,10,53,21.30
2009,07,21,10,54,21.30
2009,07,21,10,55,21.30
2009,07,21,10,56,21.30
2009,07,21,10,57,21.30
2009,07,21,10,58,21.30
2009,07,21,10,59,21.40
2009,07,21,11,00,21.40
2009,07,21,11,01,21.50
2009,07,21,11,02,21.60
2009,07,21,11,03,21.60
2009,07,21,11,04,21.60
2009,07,21,11,05,21.60
2009,07,21,11,06,21.60
2009,07,21,11,07,21.60
2009,07,21,11,08,21.60
2009,07,21,11,09,21.60
2009,07,21,11,10,21.60
2009,07,21,11,11,21.60
2009,07,21,11,12,21.60
2009,07,21,11,13,21.60
2009,07,21,11,14,21.70
2009,07,21,11,15,21.80
2009,07,21,11,16,21.80
2009,07,21,11,17,21.80
2009,07,21,11,18,21.90
2009,07,21,11,19,22.00
2009,07,21,11,20,22.10
2009,07,21,11,21,22.20
2009,07,21,11,22,22.20
2009,07,21,11,23,22.30
2009,07,21,11,24,22.40
2009,07,21,11,25,22.50
2009,07,21,11,26,22.50
2009,07,21,11,27,22.60
2009,07,21,11,28,22.60
2009,07,21,11,29,22.50
2009,07,21,11,30,22.40
2009,07,21,11,31,22.40
2009,07,21,11,32,22.40
2009,07,21,11,33,22.40
2009,07,21,11,34,22.40
2009,07,21,11,35,22.40
2009,07,21,11,36,22.40
2009,07,21,11,37,22.50
2009,07,21,11,38,22.60
2009,07,21,11,39,22.60
2009,07,21,11,40,22.70
2009,07,21,11,41,22.70
2009,07,21,11,42,22.60
2009,07,21,11,43,22.60
2009,07,21,11,44,22.60
2009,07,21,11,45,22.60
2009,07,21,11,46,22.60
2009,07,21,11,47,22.50
2009,07,21,11,48,22.40
2009,07,21,11,49,22.30
2009,07,21,11,50,22.30
2009,07,21,11,51,22.20
2009,07,21,11,52,22.20
2009,07,21,11,53,22.20
2009,07,21,11,54,22.20
2009,07,21,11,55,22.20
2009,07,21,11,56,22.30
2009,07,21,11,57,22.30
2009,07,21,11,58,22.30
2009,07,21,11,59,22.30
2009,07,21,12,00,22.30
2009,07,21,12,01,22.30
2009,07,21,12,02,22.40
2009,07,21,12,03,22.30
2009,07,21,12,04,22.30
2009,07,21,12,05,22.30
2009,07,21,12,06,22.30
2009,07,21,12,07,22.30
2009,07,21,12,08,22.40
2009,07,21,12,09,22.30
2009,07,21,12,10,22.30
2009,07,21,12,11,22.20
2009,07,21,12,12,22.20
2009,07,21,12,13,22.10
2009,07,21,12,14,22.10
2009,07,21,12,15,22.10
2009,07,21,12,16,22.20
2009,07,21,12,17,22.20
2009,07,21,12,18,22.20
2009,07,21,12,19,22.20
2009,07,21,12,20,22.20
2009,07,21,12,21,22.20
2009,07,21,12,22,22.10
2009,07,21,12,23,22.10
2009,07,21,12,24,22.10
2009,07,21,12,25,22.10
2009,07,21,12,26,22.10
2009,07,21,12,27,22.20
2009,07,21,12,28,22.20
2009,07,21,12,29,22.20
2009,07,21,12,30,22.30
2009,07,21,12,31,22.20
2009,07,21,12,32,22.20
2009,07,21,12,33,22.20
2009,07,21,12,34,22.30
2009,07,21,12,35,22.30
2009,07,21,12,36,22.30
2009,07,21,12,37,22.30
2009,07,21,12,38,22.20
2009,07,21,12,39,22.20
2009,07,21,12,40,22.20
2009,07,21,12,41,22.20
2009,07,21,12,42,22.20
2009,07,21,12,43,22.30
2009,07,21,12,44,22.40
2009,07,21,12,45,22.40
2009,07,21,12,46,22.50
2009,07,21,12,47,22.60
2009,07,21,12,48,22.60
2009,07,21,12,49,22.60
2009,07,21,12,50,22.60
2009,07,21,12,51,22.60
2009,07,21,12,52,22.70
2009,07,21,12,53,22.80
2009,07,21,12,54,22.80
2009,07,21,12,55,22.90
2009,07,21,12,56,22.80
2009,07,21,12,57,22.80
2009,07,21,12,58,22.80
2009,07,21,12,59,22.90
2009,07,21,13,00,22.90
2009,07,21,13,01,22.90
2009,07,21,13,02,23.00
2009,07,21,13,03,23.00
2009,07,21,13,04,23.00
2009,07,21,13,05,23.00
2009,07,21,13,06,22.90
2009,07,21,13,07,23.00
2009,07,21,13,08,23.00
2009,07,21,13,09,23.00
2009,07,21,13,10,23.00
2009,07,21,13,11,23.00
2009,07,21,13,12,23.10
2009,07,21,13,13,23.10
2009,07,21,13,14,23.10
2009,07,21,13,15,23.10
2009,07,21,13,16,23.10
2009,07,21,13,17,23.10
2009,07,21,13,18,23.10
2009,07,21,13,19,23.10
2009,07,21,13,20,23.10
2009,07,21,13,21,23.10
2009,07,21,13,22,23.10
2009,07,21,13,23,23.10
2009,07,21,13,24,23.20
2009,07,21,13,25,23.30
2009,07,21,13,26,23.40
2009,07,21,13,27,23.50
2009,07,21,13,28,23.50
2009,07,21,13,29,23.50
2009,07,21,13,30,23.40
2009,07,21,13,31,23.40
2009,07,21,13,32,23.40
2009,07,21,13,33,23.40
2009,07,21,13,34,23.40
2009,07,21,13,35,23.40
2009,07,21,13,36,23.50
2009,07,21,13,37,23.50
2009,07,21,13,38,23.60
2009,07,21,13,39,23.60
2009,07,21,13,40,23.50
2009,07,21,13,41,23.30
2009,07,21,13,42,23.20
2009,07,21,13,43,23.10
2009,07,21,13,44,23.00
2009,07,21,13,45,22.90
2009,07,21,13,46,22.80
2009,07,21,13,47,22.80
2009,07,21,13,48,22.80
2009,07,21,13,49,22.80
2009,07,21,13,50,22.90
2009,07,21,13,51,22.90
2009,07,21,13,52,22.90
2009,07,21,13,53,22.90
2009,07,21,13,54,22.80
2009,07,21,13,55,22.80
2009,07,21,13,56,22.90
2009,07,21,13,57,22.80
2009,07,21,13,58,22.80
2009,07,21,13,59,22.80
2009,07,21,14,00,22.80
2009,07,21,14,01,22.80
2009,07,21,14,02,22.70
2009,07,21,14,03,22.70
2009,07,21,14,04,22.60
2009,07,21,14,05,22.60
2009,07,21,14,06,22.60
2009,07,21,14,07,22.60
2009,07,21,14,08,22.70
2009,07,21,14,09,22.70
2009,07,21,14,10,22.70
2009,07,21,14,11,22.60
2009,07,21,14,12,22.60
2009,07,21,14,13,22.70
2009,07,21,14,14,22.80
2009,07,21,14,15,22.80
2009,07,21,14,16,22.80
2009,07,21,14,17,22.80
2009,07,21,14,18,22.80
2009,07,21,14,19,22.80
2009,07,21,14,20,22.80
2009,07,21,14,21,22.70
2009,07,21,14,22,22.70
2009,07,21,14,23,22.60
2009,07,21,14,24,22.60
2009,07,21,14,25,22.60
2009,07,21,14,26,22.60
2009,07,21,14,27,22.60
2009,07,21,14,28,22.60
2009,07,21,14,29,22.60
2009,07,21,14,30,22.60
2009,07,21,14,31,22.60
2009,07,21,14,32,22.60
2009,07,21,14,33,22.60
2009,07,21,14,34,22.60
2009,07,21,14,35,22.70
2009,07,21,14,36,22.70
2009,07,21,14,37,22.80
2009,07,21,14,38,22.80
2009,07,21,14,39,22.80
2009,07,21,14,40,22.80
2009,07,21,14,41,22.70
2009,07,21,14,42,22.60
2009,07,21,14,43,22.50
2009,07,21,14,44,22.40
2009,07,21,14,45,22.30
2009,07,21,14,46,22.30
2009,07,21,14,47,22.20
2009,07,21,14,48,22.20
2009,07,21,14,49,22.20
2009,07,21,14,50,22.20
2009,07,21,14,51,22.30
2009,07,21,14,52,22.40
2009,07,21,14,53,22.40
2009,07,21,14,54,22.30
2009,07,21,14,55,22.30
2009,07,21,14,56,22.20
2009,07,21,14,57,22.10
2009,07,21,14,58,22.10
2009,07,21,14,59,22.00
2009,07,21,15,00,22.00
2009,07,21,15,01,21.90
2009,07,21,15,02,21.90
2009,07,21,15,03,22.00
2009,07,21,15,04,22.00
2009,07,21,15,05,22.10
2009,07,21,15,06,22.20
2009,07,21,15,07,22.20
2009,07,21,15,08,22.20
2009,07,21,15,09,22.20
2009,07,21,15,10,22.20
2009,07,21,15,11,22.20
2009,07,21,15,12,22.20
2009,07,21,15,13,22.10
2009,07,21,15,14,22.10
2009,07,21,15,15,22.00
2009,07,21,15,16,21.90
2009,07,21,15,17,21.90
2009,07,21,15,18,21.90
2009,07,21,15,19,21.90
2009,07,21,15,20,22.00
2009,07,21,15,21,22.10
2009,07,21,15,22,22.10
2009,07,21,15,23,22.10
2009,07,21,15,24,22.10
2009,07,21,15,25,22.10
2009,07,21,15,26,22.10
2009,07,21,15,27,22.20
2009,07,21,15,28,22.20
2009,07,21,15,29,22.20
2009,07,21,15,30,22.30
2009,07,21,15,31,22.30
2009,07,21,15,32,22.30
2009,07,21,15,33,22.30
2009,07,21,15,34,22.40
2009,07,21,15,35,22.50
2009,07,21,15,36,22.50
2009,07,21,15,37,22.40
2009,07,21,15,38,22.40
2009,07,21,15,39,22.40
2009,07,21,15,40,22.40
2009,07,21,15,41,22.40
2009,07,21,15,42,22.50
2009,07,21,15,43,22.60
2009,07,21,15,44,22.70
2009,07,21,15,45,22.80
2009,07,21,15,46,22.80
2009,07,21,15,47,22.80
2009,07,21,15,48,22.80
2009,07,21,15,49,22.80
2009,07,21,15,50,22.70
2009,07,21,15,51,22.70
2009,07,21,15,52,22.80
2009,07,21,15,53,22.80
2009,07,21,15,54,22.80
2009,07,21,15,55,22.90
2009,07,21,15,56,22.90
2009,07,21,15,57,23.00
2009,07,21,15,58,23.00
2009,07,21,15,59,23.10
2009,07,21,16,00,23.20
2009,07,21,16,01,23.30
2009,07,21,16,02,23.40
2009,07,21,16,03,23.40
2009,07,21,16,04,23.50
2009,07,21,16,05,23.50
2009,07,21,16,06,23.60
2009,07,21,16,07,23.60
2009,07,21,16,08,23.60
2009,07,21,16,09,23.60
2009,07,21,16,10,23.60
2009,07,21,16,11,23.60
2009,07,21,16,12,23.70
2009,07,21,16,13,23.70
2009,07,21,16,14,23.80
2009,07,21,16,15,23.80
2009,07,21,16,16,23.80
2009,07,21,16,17,23.90
2009,07,21,16,18,23.90
2009,07,21,16,19,24.00
2009,07,21,16,20,24.10
2009,07,21,16,21,24.20
2009,07,21,16,22,24.20
2009,07,21,16,23,24.30
2009,07,21,16,24,24.30
2009,07,21,16,25,24.40
2009,07,21,16,26,24.50
2009,07,21,16,27,24.60
2009,07,21,16,28,24.70
2009,07,21,16,29,24.80
2009,07,21,16,30,24.90
2009,07,21,16,31,25.00
2009,07,21,16,32,25.10
2009,07,21,16,33,25.10
2009,07,21,16,34,25.10
2009,07,21,16,35,25.20
2009,07,21,16,36,25.10
2009,07,21,16,37,25.10
2009,07,21,16,38,25.10
2009,07,21,16,39,25.00
2009,07,21,16,40,25.00
2009,07,21,16,41,24.90
2009,07,21,16,42,24.90
2009,07,21,16,43,24.80
2009,07,21,16,44,24.80
2009,07,21,16,45,24.70
2009,07,21,16,46,24.70
2009,07,21,16,47,24.70
2009,07,21,16,48,24.60
2009,07,21,16,49,24.60
2009,07,21,16,50,24.60
2009,07,21,16,51,24.50
2009,07,21,16,52,24.60
2009,07,21,16,53,24.50
2009,07,21,16,54,24.50
2009,07,21,16,55,24.40
2009,07,21,16,56,24.40
2009,07,21,16,57,24.40
2009,07,21,16,58,24.40
2009,07,21,16,59,24.50
2009,07,21,17,00,24.60
2009,07,21,17,01,24.60
2009,07,21,17,02,24.50
2009,07,21,17,03,24.40
2009,07,21,17,04,24.40
2009,07,21,17,05,24.30
2009,07,21,17,06,24.30
2009,07,21,17,07,24.20
2009,07,21,17,08,24.20
2009,07,21,17,09,24.10
2009,07,21,17,10,24.10
2009,07,21,17,11,24.10
2009,07,21,17,12,24.10
2009,07,21,17,13,24.00
2009,07,21,17,14,23.80
2009,07,21,17,15,23.80
2009,07,21,17,16,23.70
2009,07,21,17,17,23.60
2009,07,21,17,18,23.50
2009,07,21,17,19,23.40